Tracking 28790 objects as of 19-Apr-2024
HD Live streaming from Space Station
objects crossing your sky now

COSMOS 2251 DEB

Track COSMOS 2251 DEB now!
10-day predictions


NORAD ID: 35773
Int'l Code: 1993-036ART
Perigee: 678.5 km
Apogee: 751.9 km
Inclination: 74.0 °
Period: 98.9 minutes
Semi major axis: 7086 km
RCS: 0.0109 m2 (small)
Launch date: June 16, 1993
Source: Commonwealth of Independent States (former USSR) (CIS)
Launch site: PLESETSK MISSILE AND SPACE COMPLEX (PKMTR)

Note: This is SATELLITE DEBRIS
Your satellite tracking list
Your tracking list is empty




NASA's NSSDC Master Catalog

Two Line Element Set (TLE):
1 35773U 93036ART 24109.24550126  .00009858  00000-0  22327-2 0  9995
2 35773  74.0122  52.7409 0051798 356.2171   3.8592 14.55391612780374
Source of the keplerian elements: AFSPC